Terminal Aerodrome Forecast
Issued by NWS

Home | Current Version | Previous Version | Text Only | Print | Product List | Glossary On
Versions: 1 2 3 4 5 6 7 8 9 10 11 12 13 14 15
000
FTUS44 KLUB 251126
TAFCDS
TAF
KCDS 251126Z 2512/2612 12006KT P6SM OVC070
      TEMPO 2512/2515 12005KT P6SM OVC020
     FM251800 13011KT P6SM VCTS BKN050CB=

USA.gov is the U.S. government's official web portal to all federal, state and local government web resources and services.